Kenosha, WI

6:15 AM CDT on July 23, 2017 (GMT -0500)
Kenosha Regional

Weather History for KENW - May, 2014

Change the Weather History Date:

Sunday, May 25, 2014

  Actual Average Record
Temperature  
Mean Temperature 60 °F -  
Max Temperature 77 °F 62 °F 88 °F (1950)
Min Temperature 45 °F 46 °F 36 °F (1992)
Degree Days  
Heating Degree Days 5    
Growing Degree Days 10 (Base 50)    
Moisture  
Dew Point 47 °F    
Average Humidity 55    
Maximum Humidity 90    
Minimum Humidity 36    
Precipitation  
Precipitation 0.00 in - - ()
Sea Level Pressure  
Sea Level Pressure 30.09 in    
Wind  
Wind Speed 6 mph (SSE)    
Max Wind Speed 14 mph    
Max Gust Speed -    
Visibility 10 miles    
Events      
Averages and records for this station are not official NWS values.
T = Trace of Precipitation, MM = Missing Value Source: NWS Daily Summary

Daily Weather History Graph

Daily Weather History Graph

Search for Another Location

Airport or City:

Trip Planner

Search our weather history database for the weather conditions in past years. The results will help you decide how hot, cold, wet, or windy it might be!

Date:

Astronomy

May. 25, 2014 Rise Set
Actual Time 5:20 AM CDT 8:16 PM CDT
Civil Twilight 4:47 AM CDT 8:50 PM CDT
Nautical Twilight 4:05 AM CDT 9:33 PM CDT
Astronomical Twilight 3:15 AM CDT 10:23 PM CDT
Moon 3:29 AM CDT (5/25) 5:13 PM CDT (5/25)
Length of Visible Light 16h 03m
Length of Day
14h 56m
Waning Crescent, 10% of the Moon is Illuminated
May 25
Waning Crescent
May 28
New
Jun 5
First Quarter
Jun 12
Full
Jun 19
Last Quarter

Hourly Weather History & Observations

Time (CDT) Temp. Windchill Dew Point Humidity Pressure Visibility Wind Dir Wind Speed Gust Speed Precip Events Conditions
1:53 AM 45.0 °F 43.5 °F 42.1 °F 90% 30.15 in 10.0 mi WSW 3.5 mph - N/A   Clear
2:53 AM 46.9 °F - 42.1 °F 83% 30.15 in 10.0 mi Calm Calm - N/A   Clear
4:53 AM 46.0 °F - 42.1 °F 86% 30.15 in 10.0 mi Calm Calm - N/A   Clear
5:53 AM 45.0 °F - 42.1 °F 90% 30.16 in 10.0 mi Calm Calm - N/A   Clear
7:53 AM 63.0 °F - 48.9 °F 60% 30.15 in 10.0 mi SSW 5.8 mph - N/A   Clear
8:53 AM 69.1 °F - 48.9 °F 49% 30.16 in 10.0 mi South 5.8 mph - N/A   Clear
10:53 AM 75.0 °F - 53.1 °F 46% 30.14 in 10.0 mi Variable 3.5 mph - N/A   Clear
11:53 AM 73.9 °F - 48.9 °F 41% 30.13 in 10.0 mi SE 12.7 mph - N/A   Clear
12:53 PM 75.9 °F - 50.0 °F 40% 30.12 in 10.0 mi ESE 13.8 mph - N/A   Clear
1:53 PM 75.0 °F - 51.1 °F 43% 30.11 in 10.0 mi SE 12.7 mph - N/A   Clear
2:53 PM 75.9 °F - 48.0 °F 37% 30.09 in 10.0 mi SE 13.8 mph - N/A   Clear
3:53 PM 75.9 °F - 46.9 °F 36% 30.07 in 10.0 mi SE 13.8 mph - N/A   Clear
4:53 PM 75.9 °F - 48.0 °F 37% 30.06 in 10.0 mi SSE 12.7 mph - N/A   Clear
5:53 PM 75.0 °F - 48.0 °F 38% 30.04 in 10.0 mi SE 13.8 mph - N/A   Clear
6:53 PM 72.0 °F - 48.0 °F 43% 30.03 in 10.0 mi SE 13.8 mph - N/A   Clear
7:53 PM 68.0 °F - 46.9 °F 47% 30.02 in 10.0 mi SSE 10.4 mph - N/A   Clear
8:53 PM 63.0 °F - 46.0 °F 54% 30.02 in 10.0 mi SSE 8.1 mph - N/A   Clear
9:53 PM 60.1 °F - 46.9 °F 62% 30.04 in 10.0 mi South 5.8 mph - N/A   Clear
10:53 PM 59.0 °F - 46.9 °F 64% 30.04 in 10.0 mi SSE 6.9 mph - N/A   Clear
11:53 PM 60.1 °F - 46.9 °F 62% 30.03 in 10.0 mi South 5.8 mph - N/A   Clear